Weather History for Burlington, IA

Change the Weather History Date:

Thursday, September 12, 2013

  Actual Average Record
Temperature  
Mean Temperature 71 °F 69 °F  
Max Temperature 82 °F 80 °F 98 °F (1927)
Min Temperature 59 °F 58 °F 39 °F (1955)
Degree Days  
Heating Degree Days 0 1  
Month to date heating degree days 0 8  
Since 1 July heating degree days 11 12  
Cooling Degree Days 6 5  
Month to date cooling degree days 137 81  
Year to date cooling degree days 1038 1124  
Growing Degree Days 22 (Base 50)    
Moisture  
Dew Point 57 °F    
Average Humidity 63    
Maximum Humidity 100    
Minimum Humidity 26    
Precipitation  
Precipitation T in 0.11 in 1.46 in (2008)
Month to date precipitation 0.17 1.51  
Year to date precipitation 27.23 28.76  
Sea Level Pressure  
Sea Level Pressure 30.07 in    
Wind  
Wind Speed 8 mph (NW)    
Max Wind Speed 18 mph    
Max Gust Speed 26 mph    
Visibility 9 miles    
Events Rain    
T = Trace of Precipitation, MM = Missing Value Source: NWS Daily Summary

Daily Weather History Graph

Daily Weather History Graph

Search for Another Location

Airport:

Trip Planner

Search our weather history database for the weather conditions in past years. The results will help you decide how hot, cold, wet, or windy it might be!

Date:

Astronomy

Sep. 12, 2013 Rise Set
Actual Time 6:42 AM CDT 7:18 PM CDT
Civil Twilight 6:14 AM CDT 7:45 PM CDT
Nautical Twilight 5:42 AM CDT 8:18 PM CDT
Astronomical Twilight 5:08 AM CDT 8:51 PM CDT
Moon 2:12 PM CDT (9/12) No Moon Set
Length of Visible Light 13h 30m
Length of Day
12h 35m
Waxing Crescent, 50% of the Moon is Illuminated
Sep 12
Waxing Crescent
Sep 12
First Quarter
Sep 19
Full
Sep 26
Last Quarter
Oct 4
New

Hourly Weather History & Observations

Time (CDT) Temp. Heat Index Dew Point Humidity Pressure Visibility Wind Dir Wind Speed Gust Speed Precip Events Conditions
12:08 AM 73.4 °F - 69.8 °F 88% 30.07 in 2.5 mi West 9.2 mph 20.7 mph 0.12 in Rain Rain
12:16 AM 71.6 °F - 69.8 °F 94% 30.07 in 4.0 mi West 6.9 mph 17.3 mph 0.14 in Rain Light Rain
12:53 AM 70.0 °F - 69.1 °F 97% 30.04 in 10.0 mi SW 6.9 mph - 0.16 in Rain Light Rain
1:53 AM 70.0 °F - 69.1 °F 97% 30.04 in 3.0 mi West 3.5 mph - 0.01 in Rain Light Rain
2:53 AM 70.0 °F - 68.0 °F 93% 30.03 in 10.0 mi Calm Calm - 0.00 in   Overcast
3:53 AM 69.1 °F - 68.0 °F 96% 30.04 in 10.0 mi West 3.5 mph - N/A   Mostly Cloudy
4:53 AM 69.1 °F - 68.0 °F 96% 30.05 in 10.0 mi NW 4.6 mph - 0.00 in Rain Light Rain
5:53 AM 69.1 °F - 68.0 °F 96% 30.05 in 10.0 mi West 3.5 mph - N/A   Partly Cloudy
6:53 AM 69.1 °F - 66.9 °F 93% 30.05 in 10.0 mi WNW 3.5 mph - N/A   Clear
7:53 AM 70.0 °F - 68.0 °F 93% 30.06 in 10.0 mi WNW 4.6 mph - N/A   Clear
8:53 AM 72.0 °F - 68.0 °F 87% 30.05 in 10.0 mi NNW 8.1 mph - N/A   Clear
9:53 AM 75.0 °F - 61.0 °F 62% 30.07 in 10.0 mi North 8.1 mph 16.1 mph N/A   Clear
10:53 AM 78.1 °F - 54.0 °F 43% 30.08 in 10.0 mi NNW 11.5 mph 18.4 mph N/A   Clear
11:53 AM 80.1 °F 80.0 °F 54.0 °F 40% 30.08 in 10.0 mi NW 9.2 mph 18.4 mph N/A   Clear
12:53 PM 81.0 °F - 50.0 °F 34% 30.07 in 10.0 mi NNW 12.7 mph 19.6 mph N/A   Clear
1:53 PM 81.0 °F - 42.1 °F 25% 30.07 in 10.0 mi NW 13.8 mph 26.5 mph N/A   Clear
2:53 PM 81.0 °F - 43.0 °F 26% 30.05 in 10.0 mi North 13.8 mph 21.9 mph N/A   Clear
3:53 PM 81.0 °F - 44.1 °F 27% 30.05 in 10.0 mi NNW 15.0 mph 23.0 mph N/A   Clear
4:53 PM 79.0 °F - 45.0 °F 30% 30.05 in 10.0 mi North 11.5 mph 25.3 mph N/A   Clear
5:53 PM 77.0 °F - 44.1 °F 31% 30.05 in 10.0 mi North 15.0 mph 21.9 mph N/A   Clear
6:53 PM 73.9 °F - 45.0 °F 35% 30.06 in 10.0 mi North 9.2 mph - N/A   Clear
7:53 PM 70.0 °F - 46.0 °F 42% 30.08 in 10.0 mi NNW 8.1 mph - N/A   Clear
8:53 PM 68.0 °F - 46.9 °F 47% 30.10 in 10.0 mi North 9.2 mph - N/A   Clear
9:53 PM 66.0 °F - 48.0 °F 52% 30.12 in 10.0 mi North 8.1 mph - N/A   Clear
10:53 PM 63.0 °F - 48.0 °F 58% 30.12 in 10.0 mi North 5.8 mph - N/A   Clear
11:53 PM 61.0 °F - 48.9 °F 64% 30.12 in 10.0 mi NNW 5.8 mph - N/A   Clear